Погода в Сапопане

Мексика     20°43′31″N   103°23′14″W
темп.,
°C
ветер,
м/с
пор.,
м/с
влажн.,
%
обл.,
%
осадки,
мм/ч
давл.,
гПа
погр.,
м
30 ноября, вт
вт3000:00+15юз116041 0.0 101711
03:00+14юз116314 0.0 101711
06:00+13юв116717 0.0 101710
09:00+18в124924 0.0 1018222
12:00+26вюв1231100 0.0 10151335
15:00+27зсз2228100 0.0 10112658
18:00+21зсз124346 0.0 101326
21:00+17юз2465100 0.0 101784
1 декабря, ср
ср100:00+14зюз22878 0.3 101821
03:00+13юз1192100 0.0 101710
06:00+13юв019195 0.0 101810
09:00+18в116999 0.0 1020198
12:00+24в1242100 0.0 10171074
15:00+25вюв1137100 0.0 10141680
18:00+20вюв0148100 0.0 101411
21:00+17юз11597 0.1 101711
2 декабря, чт
чт200:00+15зюз11725 0.1 101811
03:00+14вюв117845 0.0 101810
06:00+13в11811 0.0 101911
09:00+18в12551 0.0 1020234
12:00+26всв22310 0.0 10171347
15:00+28всв112539 0.0 10132367
18:00+21з113914 0.0 101311
21:00+18ююз11472 0.0 101611
3 декабря, пт
пт300:00+15юз11550 0.0 101811
03:00+14в00664 0.0 101711
06:00+13вюв11653 0.0 101810
09:00+18в12435 0.0 1019209
12:00+26всв122534 0.0 10161116
15:00+28ссв1122100 0.0 10112170
18:00+21зсз11370 0.0 101211
21:00+17ююз11440 0.0 101511
4 декабря, сб
сб400:00+16зюз11502 0.0 101611
03:00+14юв1155100 0.0 101611
06:00+13вюв215699 0.0 101711
09:00+17в1241100 0.0 1018145
12:00+27вюв11235 0.0 10151059
15:00+28сз11208 0.0 10112468
18:00+21зсз11334 0.0 101211
21:00+18юз113919 0.0 101511